Lapse_Rate
0.8 0.9 1.0 0.9 0.8 0.9 0.9 0.9 0.6 0.3 -0.1 0.1 -0.4 -0.6 -0.9 -1.2 -1.6 -0.7 1.8 4.4 3.1 3.4 4.5 5.4 6.1 7.4 7.8 8.2 7.5 8.1 6.5 6.5 6.5 6.5 6.5 7.0 6.6 7.4 8.0 7.5 7.8 8.0 8.1 8.5 8.7
0.6 0.5 0.6 0.8 1.0 0.9 1.0 1.0 1.0 0.7 0.2 -0.1 -0.3 -0.6 -0.8 -1.1 -0.8 0.5 2.2 1.8 2.6 4.0 6.0 6.8 6.9 7.1 7.7 7.7 7.7 6.8 6.5 6.5 6.6 6.6 6.5 6.8 6.8 7.1 7.1 7.2 7.4 7.8 8.4 8.6 8.5
0.3 0.1 0.0 0.2 0.5 0.6 0.6 0.7 0.8 0.7 0.4 -0.0 -0.1 -0.7 -0.5 -0.6 2.1 5.3 3.6 1.8 3.3 3.7 6.5 7.1 6.9 8.1 7.2 7.5 7.3 6.9 6.5 6.5 6.7 6.9 6.8 6.6 6.9 7.5 7.0 6.5 7.4 7.4 7.9 8.4 8.5
0.1 -0.1 -0.1 -0.1 -0.2 -0.0 0.1 -0.3 -0.2 -0.1 0.1 0.0 -0.1 -0.1 -0.2 -0.4 6.5 5.7 2.6 1.8 3.2 5.4 7.0 7.1 7.2 7.4 6.7 6.5 7.4 6.5 6.8 6.9 6.9 7.1 7.0 6.5 7.2 6.8 7.1 7.2 8.1 8.1 8.1 8.3 8.2
-0.2 -0.2 -0.1 -0.2 -0.2 -0.3 -0.3 -0.3 -0.5 -0.9 -0.8 -0.4 -0.3 0.1 1.2 4.5 5.2 5.2 3.4 3.3 4.3 6.9 7.5 7.9 7.7 7.4 6.5 6.8 7.0 6.5 6.7 7.1 7.1 7.3 7.3 7.0 6.8 6.8 7.0 7.9 8.3 8.4 8.2 8.2 8.4
-0.3 -0.3 0.0 -0.1 -0.2 -0.2 -0.2 -0.2 -0.6 -0.8 -1.0 -0.5 -0.4 0.5 2.8 6.8 5.3 3.6 3.8 4.1 5.3 7.3 7.5 7.9 7.9 7.7 7.2 6.8 6.6 6.9 6.9 6.9 7.1 7.0 7.3 6.7 6.8 6.8 7.2 8.1 8.0 8.1 8.1 8.4 8.3
-0.4 -0.5 -0.4 -0.5 -0.6 -0.4 -0.4 -0.6 -0.5 -0.5 -0.7 -0.7 -0.0 1.5 3.4 6.4 5.0 3.5 4.0 4.3 5.7 7.0 7.3 7.2 7.7 7.8 7.6 6.6 7.5 7.1 6.5 6.5 6.8 7.0 6.7 7.1 6.5 6.5 7.2 7.9 7.8 7.9 8.1 8.3 8.5
-0.6 -0.6 -0.7 -0.9 -1.1 -1.4 -1.6 -1.4 -1.4 -0.8 -0.5 -0.4 0.1 1.7 5.4 5.2 4.1 4.7 5.6 5.6 6.8 7.0 7.4 6.8 7.7 8.0 7.5 7.2 7.0 6.5 6.5 6.5 6.5 6.7 6.9 6.5 6.5 6.6 5.7 7.5 7.5 7.8 8.0 8.1 8.4
-0.5 -0.8 -1.1 -1.4 -1.6 -2.0 -2.7 -2.5 -1.4 -0.7 -0.1 0.9 1.5 2.9 7.0 5.0 6.0 6.0 6.7 6.8 6.9 7.3 7.5 8.3 8.3 7.5 7.4 6.5 6.5 6.5 6.5 6.5 6.5 6.7 6.5 6.5 6.5 6.7 6.5 6.9 7.4 7.7 7.8 8.1 8.3
-0.6 -1.1 -1.4 -1.7 -1.8 -2.2 -3.2 -2.1 -0.1 0.8 1.2 2.1 2.8 4.9 5.6 7.5 6.5 6.3 6.4 7.2 7.3 7.5 7.9 7.8 7.5 6.5 6.5 6.5 6.5 6.5 6.5 6.5 6.5 6.5 6.5 6.5 6.5 6.6 7.0 7.1 7.4 7.6 7.9 8.0 8.1
-0.8 -1.1 -1.6 -2.0 -2.2 -2.4 -2.9 0.3 4.2 5.0 3.8 7.0 7.3 6.1 7.0 7.7 7.2 6.6 7.3 7.8 7.6 7.7 6.5 7.1 6.5 6.5 6.5 6.5 6.5 6.5 6.5 6.5 6.5 6.5 6.5 6.5 6.5 6.5 6.9 7.2 7.0 7.3 7.6 7.9 8.0
-1.2 -1.1 -1.5 -1.9 -2.5 -2.9 -3.5 3.8 6.6 6.5 6.9 4.4 4.5 5.2 5.6 6.3 7.4 6.9 7.7 7.4 7.1 6.5 6.7 6.5 6.5 6.5 6.5 6.5 6.5 6.5 6.5 6.5 6.5 6.5 6.5 6.5 6.5 6.5 6.8 6.8 7.1 7.2 7.7 7.9 7.8
-1.1 -1.4 -1.7 -2.7 -3.3 -3.4 -0.4 4.1 4.1 6.4 7.0 7.0 5.3 5.8 6.5 6.8 7.3 7.4 8.1 7.4 6.7 6.5 6.5 6.5 6.5 6.6 6.5 6.5 6.5 6.5 6.5 6.5 6.5 6.5 6.5 6.5 6.5 6.5 6.5 6.6 6.9 7.3 7.9 8.1 8.0
-1.1 -1.6 -2.1 -3.1 -1.8 0.4 2.8 3.3 2.4 4.0 6.5 6.5 6.8 7.1 6.7 6.6 6.8 7.0 8.1 7.7 6.7 6.5 6.5 6.5 6.6 6.5 6.5 6.5 6.5 6.5 6.5 6.5 6.5 6.5 6.5 6.5 6.5 6.5 6.5 6.5 6.8 7.1 7.4 8.0 8.1
-1.3 -1.9 -2.8 -3.5 -0.4 2.7 4.1 2.3 1.6 4.5 6.5 6.5 6.7 7.2 6.7 7.1 7.3 7.1 7.5 7.5 6.5 6.5 6.5 6.5 6.5 6.5 6.5 6.5 6.5 6.5 6.5 6.5 6.5 6.5 6.5 6.5 6.5 6.5 6.5 6.5 6.5 6.6 7.5 8.0 8.2
-1.6 -2.4 -3.2 -3.6 -3.5 1.3 1.4 2.5 4.9 6.5 6.5 6.5 6.8 6.6 6.5 6.9 6.9 7.5 7.4 7.6 7.4 6.5 6.5 6.5 7.1 6.6 6.5 6.5 6.5 6.5 6.5 6.5 6.5 6.5 6.5 6.5 6.5 6.5 6.5 6.5 6.5 7.0 7.3 7.8 8.1
-2.4 -3.7 -4.6 -2.2 4.8 0.6 1.6 5.5 6.5 6.5 6.5 6.5 6.5 6.5 6.5 6.5 6.5 6.5 6.5 6.5 6.5 6.5 6.5 6.5 6.5 6.5 6.8 6.5 6.5 6.5 6.5 6.5 6.5 6.5 6.5 6.5 6.5 6.5 6.5 6.5 6.7 6.8 7.4 7.6 8.0
-3.8 -5.3 -5.1 -2.5 -1.6 -0.9 4.0 6.6 6.5 6.5 6.5 6.5 6.5 6.5 6.5 6.5 6.5 6.5 6.5 6.5 6.5 6.5 6.5 6.5 6.5 6.5 6.5 6.5 6.5 6.5 6.5 6.5 6.5 6.5 6.5 6.5 6.5 6.5 6.5 7.0 7.3 7.4 7.7 7.8 7.8
-5.0 -2.8 -1.4 0.1 -2.5 -0.4 7.0 6.5 6.5 6.5 6.5 6.5 6.5 6.5 6.5 6.5 6.5 6.5 6.5 6.5 6.5 6.5 6.5 6.5 6.5 6.5 6.5 6.5 6.5 6.5 6.5 6.5 6.5 6.5 6.5 6.5 6.5 6.5 6.5 6.5 7.0 7.2 7.3 7.3 7.2
-2.2 1.5 3.2 -0.7 -0.6 4.2 6.6 6.5 6.5 6.6 6.6 6.5 6.5 6.5 6.5 6.5 6.5 6.5 6.5 6.5 6.5 6.6 6.7 6.5 6.5 6.5 6.5 6.7 6.6 6.5 6.5 6.5 6.5 6.5 6.5 6.5 6.5 6.5 6.5 6.5 6.5 6.7 7.1 7.4 7.7
0.6 6.0 3.7 1.1 1.8 6.3 6.5 6.5 6.5 7.1 7.0 6.5 6.5 6.5 6.5 6.5 6.5 6.5 6.5 6.5 6.5 6.5 6.7 6.5 6.5 6.5 6.5 6.5 6.5 6.5 6.5 6.5 6.5 6.5 6.5 6.5 6.5 6.5 6.5 6.5 6.5 6.8 7.3 7.6 7.4
2.4 6.5 4.6 3.6 6.7 7.0 6.5 6.5 5.5 6.7 7.1 6.6 6.6 6.5 6.5 6.5 6.5 6.5 6.5 6.5 7.0 6.8 6.5 6.5 6.5 6.5 6.5 6.5 6.5 6.5 6.5 6.5 6.5 6.5 6.5 6.5 6.5 6.5 6.5 6.7 6.9 7.0 7.4 7.7 7.8
4.6 5.8 4.3 4.9 6.5 6.5 6.6 6.5 6.8 6.5 6.5 6.5 6.5 6.5 6.5 6.5 6.5 6.5 6.5 6.8 7.0 6.6 6.5 6.5 6.5 6.5 6.5 6.5 6.5 6.5 6.5 6.5 6.5 6.5 6.5 6.5 6.5 6.5 6.8 6.7 7.2 7.1 7.4 6.9 6.5
4.7 6.5 6.6 4.8 5.0 6.6 6.5 6.5 6.5 7.0 6.7 6.9 6.5 6.7 6.5 6.5 6.5 6.5 6.5 6.6 7.0 6.9 6.5 6.7 6.5 6.5 6.5 6.5 6.5 6.5 6.5 6.5 6.5 6.5 6.5 6.5 6.5 6.5 6.5 6.5 6.8 7.0 6.9 6.4 6.4
4.1 6.7 5.7 6.5 6.7 6.6 6.6 6.5 6.5 6.5 6.9 7.1 6.5 6.5 6.5 6.5 6.5 6.5 6.5 6.5 6.7 6.9 6.8 6.5 6.5 6.5 6.5 6.5 6.5 6.5 6.5 6.5 6.5 6.5 6.5 6.5 6.5 6.5 6.5 6.5 6.9 7.0 6.6 6.1 5.7
6.4 6.9 5.4 7.0 6.7 6.6 6.5 6.5 6.5 6.5 6.5 6.5 6.5 6.5 6.5 6.5 6.5 6.5 6.5 6.5 6.5 6.6 6.5 6.5 6.5 6.5 6.5 6.5 6.5 6.5 6.5 6.5 6.5 6.5 6.5 6.5 6.5 6.5 7.0 7.2 7.0 7.1 7.1 7.0 6.3
2.7 3.2 5.9 6.1 6.7 6.5 6.5 6.5 6.5 6.6 6.8 7.0 6.7 6.5 6.5 6.5 7.1 7.2 7.3 7.1 6.8 6.5 6.5 6.5 6.5 6.5 6.5 6.5 6.5 6.5 6.5 6.5 6.5 6.5 6.5 6.5 6.5 6.7 6.5 6.8 6.9 7.2 7.3 7.3 7.2
Wind_Speed
11 11 11 11 12 12 12 11 9 10 10 10 10 10 12 13 12 2 6 7 7 10 10 12 5 8 5 5 3 2 2 3 2 9 5 1 6 4 9 12 4 3 14 18 19
13 12 12 11 11 11 11 11 11 10 10 11 11 10 10 11 4 9 11 10 11 16 14 16 11 11 3 4 3 2 1 2 2 3 4 4 9 12 7 12 11 17 18 19 18
14 13 12 11 11 11 10 11 11 11 11 10 10 10 10 9 4 4 6 18 15 16 11 9 12 7 3 3 3 3 1 8 3 2 3 5 10 9 13 8 16 25 23 20 18
14 13 12 11 11 11 10 9 8 9 10 10 9 10 11 2 2 2 6 18 15 14 14 9 8 7 4 4 4 2 3 6 7 8 5 4 8 7 4 4 16 22 24 19 18
14 13 12 11 10 10 10 9 8 7 7 7 8 9 4 2 6 4 9 13 15 10 16 11 15 6 6 5 6 4 3 8 10 13 12 9 7 6 11 16 18 19 19 19 16
14 13 12 12 12 11 10 10 9 7 5 5 4 4 3 4 2 8 12 13 14 7 8 11 9 5 5 4 6 5 5 6 13 14 15 15 6 5 2 16 17 18 18 16 15
15 14 13 12 12 11 11 11 10 8 5 3 4 2 2 7 4 8 10 9 10 5 7 4 3 4 5 6 2 7 4 7 15 17 13 17 8 3 10 16 18 16 15 14 14
16 15 13 11 11 11 12 11 8 6 3 3 4 2 5 2 3 7 9 7 6 5 3 2 1 1 2 1 3 3 1 3 6 14 8 6 10 11 7 13 18 17 15 14 14
15 14 12 11 11 11 12 14 5 4 3 5 2 2 2 0 3 7 5 10 8 1 2 3 3 2 3 5 3 3 2 5 6 3 9 4 6 17 15 12 17 17 15 14 13
15 14 13 12 12 11 14 4 7 7 4 4 3 3 3 3 5 8 2 12 4 6 5 4 2 4 2 7 7 8 4 6 6 5 6 7 7 21 16 15 17 17 16 16 15
15 14 13 11 10 8 5 3 2 3 4 5 3 3 2 3 7 4 6 7 5 8 6 5 6 12 11 5 4 8 5 8 5 4 6 5 11 18 17 17 17 15 16 17 16
13 15 13 11 9 5 1 2 1 3 6 7 7 7 7 3 4 7 10 5 8 13 8 7 14 7 4 5 5 8 10 7 10 3 7 8 4 15 18 17 17 17 17 17 14
13 14 14 12 8 3 3 4 3 2 3 3 3 3 1 8 6 11 14 8 11 12 13 13 4 9 7 6 8 4 3 8 7 9 11 10 2 9 5 6 7 8 15 17 17
15 13 14 12 3 2 3 0 3 2 2 6 2 2 4 3 5 6 12 9 5 12 8 9 4 13 8 10 7 7 7 9 17 7 4 3 2 8 12 10 14 16 10 17 18
15 14 12 5 4 2 3 4 5 2 2 11 2 2 2 2 13 7 5 4 7 8 5 4 11 12 11 7 7 1 12 13 15 7 7 9 4 4 14 16 17 18 19 15 18
17 15 11 2 2 4 5 1 2 2 4 4 5 6 2 2 3 6 9 1 2 5 3 4 2 7 8 7 8 9 15 12 5 2 3 11 8 6 14 27 21 25 22 20 16
20 16 5 2 0 3 4 2 1 3 3 6 4 5 2 5 4 6 10 6 4 6 9 4 5 2 3 6 7 9 14 5 3 3 4 3 9 7 16 10 26 27 23 20 17
26 13 7 4 2 7 2 1 5 1 2 2 2 2 3 5 3 3 7 7 4 2 4 8 9 9 7 9 6 13 11 6 7 6 4 6 7 1 4 11 16 23 22 22 17
21 1 1 2 5 3 1 4 1 1 2 6 1 3 3 2 0 1 3 3 1 4 2 4 5 1 6 6 12 7 9 7 1 1 5 5 3 3 4 9 15 20 21 21 16
3 1 4 7 5 1 4 3 1 2 1 1 3 3 3 4 1 2 2 1 4 0 2 6 3 3 5 7 3 7 9 10 5 8 7 4 3 4 8 9 13 16 20 18 18
1 2 6 2 2 4 3 1 1 3 4 2 3 2 2 2 2 1 1 2 1 3 3 4 3 4 3 9 12 6 5 3 6 3 9 6 4 3 8 12 14 13 14 15 15
1 2 3 3 1 1 1 0 2 3 1 1 1 2 3 2 2 1 3 0 2 2 3 2 2 4 3 2 3 2 10 13 9 10 1 3 2 3 6 11 13 13 12 11 12
2 2 2 2 2 2 0 1 2 1 4 4 2 4 2 3 2 3 3 2 2 3 3 4 1 3 5 4 3 2 1 3 2 3 9 8 3 3 8 10 13 13 11 9 8
1 2 1 3 2 1 2 1 2 3 2 2 2 2 2 3 4 2 3 1 4 3 8 1 2 4 5 1 1 2 2 3 7 9 6 6 7 11 11 10 10 10 9 8 6
3 2 1 1 3 2 2 1 2 3 4 8 3 5 1 2 2 3 3 3 1 7 3 1 3 3 3 2 8 6 5 3 7 2 9 9 12 16 16 14 11 9 10 9 6
1 2 2 3 0 1 2 2 1 1 4 4 3 5 4 3 3 3 4 4 3 5 2 3 2 1 3 1 5 4 10 5 3 1 2 6 8 8 14 13 13 11 10 10 9
1 1 1 1 2 1 0 1 2 1 2 2 2 2 5 3 1 3 3 1 2 2 2 2 2 3 4 5 4 4 7 6 1 1 1 5 4 16 17 15 14 13 11 9 10
Wind_Direction
337 334 330 326 322 320 318 318 319 320 320 321 324 325 324 326 319 156 242 218 182 175 160 143 134 143 170 185 196 171 279 110 143 138 146 227 133 68 106 124 104 134 141 134 143
335 332 328 322 319 317 316 316 316 316 318 319 319 321 322 331 293 249 243 210 203 157 149 154 151 148 169 195 203 219 256 90 133 105 176 135 124 121 110 121 109 110 115 134 146
335 334 330 324 317 312 310 312 313 313 314 316 317 317 317 325 279 249 281 201 191 188 162 151 150 156 145 187 193 163 123 127 131 68 221 124 106 123 119 139 161 141 141 148 154
336 335 333 325 318 313 307 300 300 304 309 312 314 311 315 259 178 5 22 170 161 169 156 150 164 163 133 187 197 264 136 135 142 180 203 177 119 105 52 153 154 142 145 150 158
338 334 331 325 321 316 310 306 303 304 302 304 311 312 298 212 254 326 136 152 140 163 166 170 166 166 169 182 174 227 139 162 179 191 182 130 114 108 76 126 139 144 147 155 159
338 339 336 333 327 323 319 312 303 296 288 286 293 300 261 249 355 338 171 154 151 148 158 162 178 202 133 175 201 161 142 159 154 168 149 141 141 80 141 135 145 153 152 160 165
344 341 338 333 329 322 318 314 307 295 269 244 249 215 244 254 352 99 136 148 157 142 168 187 181 230 150 149 193 161 124 108 156 161 139 114 145 147 135 157 155 163 158 164 171
345 342 340 335 326 319 316 316 307 290 262 214 192 229 245 245 15 144 135 112 122 83 167 249 279 163 255 99 117 166 218 153 104 158 146 139 165 166 194 170 169 168 170 172 180
346 342 336 335 328 325 322 308 269 190 179 168 175 246 263 10 187 170 130 143 159 39 36 203 284 256 184 151 116 157 193 168 127 90 150 148 133 163 193 176 176 176 177 178 184
340 341 341 340 337 336 328 291 132 129 171 185 249 256 242 85 139 144 107 141 135 146 127 140 204 217 177 196 188 171 176 145 146 167 176 165 123 170 182 190 188 183 179 181 190
338 342 342 338 331 335 343 152 197 182 206 247 308 301 315 42 133 176 153 117 120 155 156 154 195 200 195 206 126 154 182 124 103 40 90 4 155 170 180 200 197 183 189 189 194
343 340 339 333 325 311 168 234 196 74 303 233 245 266 271 282 120 137 176 132 163 158 143 161 213 190 212 208 133 125 147 99 89 44 91 48 171 167 183 205 198 186 192 193 188
336 340 336 337 323 162 221 235 101 96 270 298 185 232 236 178 151 168 179 142 165 170 176 189 186 170 185 192 172 151 145 155 133 121 74 100 32 180 148 167 179 191 202 200 193
332 333 338 338 221 159 248 244 129 193 314 23 72 137 149 227 113 155 183 155 167 182 167 190 134 169 173 191 196 173 203 138 135 144 130 192 198 229 184 173 216 217 201 203 205
329 335 333 310 314 220 80 354 131 180 98 338 34 78 122 229 131 179 199 173 174 163 199 143 159 168 176 183 190 54 173 151 161 98 138 194 164 200 194 204 197 211 218 208 206
326 330 330 151 219 258 315 83 210 254 60 7 358 354 153 34 101 129 178 120 101 137 176 119 141 174 198 182 177 121 130 103 115 141 226 195 214 191 192 208 196 204 218 214 211
324 318 277 256 192 325 318 178 281 47 324 3 348 358 65 24 90 153 171 171 179 171 188 193 185 179 181 162 144 184 175 150 181 198 228 157 204 254 201 197 204 201 202 207 208
329 317 188 225 299 341 189 138 67 14 343 340 338 354 71 4 59 45 149 165 88 86 160 208 215 210 171 213 174 190 211 195 197 193 195 131 214 221 181 214 218 208 207 201 208
324 97 167 314 232 264 176 63 98 171 323 337 110 62 59 43 347 117 67 129 126 173 203 177 223 213 209 174 192 174 222 246 121 7 199 171 224 229 233 217 201 202 198 197 204
330 27 31 7 134 251 58 97 117 255 294 256 64 355 47 18 173 108 110 121 124 159 317 176 255 191 156 178 164 219 182 202 223 206 229 195 243 179 175 170 177 187 188 194 195
291 96 4 45 292 41 68 40 281 248 239 14 66 84 50 23 42 2 99 116 125 135 161 158 226 142 192 204 188 174 202 207 222 267 217 203 222 175 168 172 172 165 168 173 173
35 81 14 299 28 44 60 307 335 5 42 1 36 71 53 38 52 1 154 39 59 189 191 175 188 237 248 98 290 240 220 202 218 198 235 298 149 320 175 165 171 164 155 150 175
65 94 76 293 69 66 47 339 342 37 37 357 53 44 73 42 1 31 24 359 238 192 180 188 194 209 176 169 136 176 130 230 178 206 201 219 179 144 151 156 170 168 161 159 159
122 115 69 58 26 144 142 31 111 38 71 324 5 120 112 47 56 32 17 9 321 24 70 187 158 259 259 36 43 137 14 202 235 225 189 222 165 186 182 171 165 161 150 132 138
15 87 25 75 46 116 86 17 78 11 9 22 76 35 30 103 84 23 9 307 79 -0 69 327 193 167 130 80 112 80 24 234 215 227 224 191 199 188 182 174 169 150 137 138 123
85 156 129 98 314 88 19 47 89 88 1 20 50 12 39 77 58 52 1 15 35 320 47 359 112 343 164 121 167 78 49 78 102 141 265 180 198 181 163 157 154 158 155 149 145
9 92 293 61 111 124 50 133 82 105 112 56 324 299 105 83 340 330 302 315 5 282 55 31 75 353 184 343 228 197 21 30 344 89 332 189 11 161 161 163 161 158 160 152 141